Weather in Verkhoup'ye

Russia / Tula Oblast     53°36′24″N   37°55′09″E
temp.,
°C
wind,
m/s
gust,
m/s
humid.,
%
clouds,
%
prec.,
mm/h
press.,
hPa
HPBL,
m
25 may, wed
wed2500:00+4n238876 0.0 101350
03:00+4n257748 0.0 1014219
06:00+3n34785 0.0 1015187
09:00+7n336112 0.0 10161072
12:00+10nw345499 0.0 10161545
15:00+11nw3455100 0.0 10161591
18:00+11wnw2360100 0.0 10161137
21:00+9s1167100 0.0 101610
26 may, thu
thu2600:00+7sw368196 0.0 1016116
03:00+6sw349236 0.0 101578
06:00+7sw389081 0.0 1014199
09:00+15wsw58675 0.0 1012530
12:00+16sw5869100 0.8 1011850
15:00+14ssw71178100 1.4 10081104
18:00+11s91695100 6.2 10031189
21:00+11wsw91393100 8.4 10001066
27 may, fri
fri2700:00+9w111793100 0.3 1001997
03:00+8w817926 0.4 1003625
06:00+9w71395100 0.1 1004771
09:00+10w8138995 0.4 1005906
12:00+12wnw8118021 0.4 10061047
15:00+14w8106998 0.8 10071440
18:00+14wsw710726 0.1 10081310
21:00+11ssw51184100 0.1 1007287
28 may, sat
sat2800:00+12s71783100 0.0 1005643
03:00+12sw101991100 0.8 1002964
06:00+11wsw81491100 2.9 1004811
09:00+11wsw7108794 4.3 1005777
12:00+14wsw810575 0.1 10071696
15:00+15wsw7105283 0.1 10082476
18:00+13sw7107191 0.7 1009722
21:00+9ssw4118896 0.8 1010269
29 may, sun
sun2900:00+8ssw41291100 0.0 1011317
03:00+8sw4109172 0.0 1012252
06:00+9sw4988100 0.0 1012383
09:00+13wsw696861 0.0 1013999
12:00+15wsw795630 0.1 10142041
15:00+14wsw696797 0.1 10151144
18:00+14wsw610715 0.3 10161323
21:00+9sw410870 0.3 1018220